Content
SEND FEEDBACK

Daily
Averages
Monthly
Summary
United States of America

SOUTH LAKE TAHOE, CALIFORNIA


Home > North America > United States > California
Elevation: 6263 feet     Latitude: 38 53N     Longitude: 119 59W

WEATHER
 
SELECT A DAY
Number of Records: 174,493;   Date Range: 1/1/95 - 8/12/14
 
SHARE

PRINT THIS DATA

[ ← Previous Day ]
WEATHER ALMANAC - FEBRUARY 12, 2013
[ Next Day → ]
[ °C ]   °F
Weather ElementAverageHighLow
Temperature28.9 °F46.9 °F (3:53 pm)14 °F (5:53 am)
Dewpoint14.5 °F19.9 °F (12:53 pm)7 °F (6:53 am)
Humidity58 %77 % (5:53 am)30 % (3:53 pm)
Barometer30.35 in30.42 in (7:53 pm)30.30 in (1:53 am)
Wind Speed2.8 mph8.1 mph (12:53 pm)
Weather ElementAverage
Visibility10 mi
Wind DirectionENE (74.8 °)

Weather ElementTotal
Precipitation---
Heating Degree Days34.6 (Base 65)
Averaged from 23 records on February 12, 2013
WEATHER CONDITIONS BREAKOUT
WIND DIRECTION BREAKOUT
WEATHER BY HOUR - FEBRUARY 12, 2013
[ °C ]   °F
Local TimeTemperatureDewpointHumidityBarometerVisibilityWind DirectionWind SpeedGust SpeedPrecipitationEventsConditions
1:53 AM18.0 °F10.0 °F71 %30.30 in10.0 miCalmClear
2:53 AM15.1 °F8.1 °F74 %30.31 in10.0 miSouth (190°)3.5 mphClear
3:53 AM15.1 °F8.1 °F74 %30.31 in10.0 miSouth (180°)4.6 mphClear
4:53 AM17.1 °F9.0 °F71 %30.32 in10.0 miSSW (200°)5.8 mphClear
5:53 AM14.0 °F8.1 °F77 %30.37 in10.0 miSSW (200°)4.6 mphClear
6:53 AM14.0 °F7.0 °F74 %30.39 in10.0 miCalmClear
7:53 AM15.1 °F8.1 °F74 %30.41 in10.0 miSSW (200°)3.5 mphClear
8:53 AM25.0 °F12.0 °F58 %30.39 in10.0 miCalmClear
9:53 AM33.1 °F12.9 °F43 %30.36 in10.0 miSouth (190°)3.5 mphClear
10:53 AM41.0 °F16.0 °F36 %30.32 in10.0 miCalmClear
11:53 AM41.0 °F18.0 °F40 %30.33 in10.0 miNNE (30°)6.9 mphClear
12:53 PM42.1 °F19.9 °F41 %30.31 in10.0 miNE (40°)8.1 mphClear
1:53 PM44.1 °F19.0 °F37 %30.30 in10.0 miNE (50°)4.6 mphClear
2:53 PM46.0 °F18.0 °F33 %30.30 in10.0 miNNE (30°)8.1 mphClear
3:53 PM46.9 °F17.1 °F30 %30.30 in10.0 miNNE (20°)3.5 mphClear
4:53 PM39.0 °F19.9 °F46 %30.32 in10.0 miCalmClear
5:53 PM35.1 °F19.0 °F52 %30.37 in10.0 miCalmClear
6:53 PM30.9 °F19.0 °F61 %30.40 in10.0 miSSW (200°)3.5 mphClear
7:53 PM28.0 °F18.0 °F66 %30.42 in10.0 miCalmClear
8:53 PM28.0 °F17.1 °F63 %30.38 in10.0 miCalmClear
9:53 PM26.1 °F17.1 °F69 %30.36 in10.0 miCalmClear
10:53 PM25.0 °F17.1 °F72 %30.34 in10.0 miSouth (190°)3.5 mphClear
11:53 PM24.1 °F16.0 °F71 %30.35 in10.0 miCalmClear
Hourly data recorded from KTVL, located miles away from South Lake Tahoe, California







STORIES FROM OUR PARTNERS